Regional Weather Roundup
Issued by NWS

Home | Current Version | Previous Version | Text Only | Print | Product List | Glossary On
Versions: 1 2 3 4 5 6 7 8 9 10 11 12 13 14 15 16 17 18 19 20 21 22 23 24 25 26 27 28 29 30 31 32 33 34 35 36 37 38 39 40 41 42 43 44 45 46 47 48 49 50
000
ASUS43 KLOT 111302
RWRIL

ILLINOIS REGIONAL WEATHER ROUNDUP
NATIONAL WEATHER SERVICE CHICAGO/ROMEOVILLE IL
700 AM CST SUN DEC 11 2016

NOTE: "FAIR" INDICATES FEW OR NO CLOUDS BELOW 12,000 FEET WITH NO
SIGNIFICANT WEATHER AND/OR OBSTRUCTIONS TO VISIBILITY.

* THESE STATIONS ARE NOT UNDER NWS QUALITY CONTROL. THEY ALSO MAY NOT
  REPORT WEATHER SUCH AS PRECIPITATION OR FOG.

ILZ001-002-007-009-015-016-024-111400-
NORTHWEST ILLINOIS

CITY           SKY/WX    TMP DP  RH WIND       PRES   REMARKS
MOLINE         CLOUDY    31  23  72 E6        29.94F WCI  25
STERLING*      CLOUDY    27  23  85 E8        29.99F WCI  19
SAVANNA*       CLOUDY    27  23  85 SE8       29.97S WCI  19
$$

ILZ003-004-008-010-011-017-018-111400-
NORTH CENTRAL ILLINOIS

CITY           SKY/WX    TMP DP  RH WIND       PRES   REMARKS
ROCKFORD       CLOUDY    27  22  81 SE15      30.01F WCI  15
FREEPORT*      CLOUDY    26  22  87 SE10      30.00S WCI  15
ROCHELLE*      CLOUDY    26  23  89 SE16      30.00F WCI  13
$$

ILZ005-006-012>014-019>023-111400-
NORTHEAST ILLINOIS

CITY           SKY/WX    TMP DP  RH WIND       PRES   REMARKS
CHICAGO-OHARE  FLURRIES  26  22  84 SE15      30.02F WCI  14
CHICAGO-MIDWAY LGT SNOW  28  22  78 SE14      30.05F WCI  17
AURORA         CLOUDY    27  22  81 SE13      30.02F WCI  16
LANSING*       LGT SNOW  26  25  96 SE14      30.08F WCI  15
WAUKEGAN       FLURRIES  29  24  82 S13       30.02F WCI  19
DUPAGE AIRPORT CLOUDY    26  21  81 SE15      30.01F WCI  14
KANKAKEE*      MIX PCPN  28  24  84 SE15      30.06F WCI  16
WHEELING       CLOUDY    26  22  84 SE14      30.04F WCI  14
MORRIS*        FLURRIES  29  23  79 SE8       30.01F WCI  21
NORTHERLY ISL    N/A     28  24  85 S21         N/A  WCI  15
$$

LMZ740>746-111400-
SOUTHERN LAKE MICHIGAN

STATION/POSITION SKY/WX   TEMP    WIND        PRES    VSBY  WAVE
                          AIR SEA DIR/SP/G                  HT/PER
                          (F)     (DEG/KT/KT) (MB)    (MI)  (FT/S)
BURNHAM HARBOR             28     150/ 17/ 19   N/A
CALUMET HARBOR             27     140/ 13/ 20 1018.0F
BURNS HARBOR               26     140/ 13/ 20 1019.6F
$$

ILZ025>027-034>036-040-047-049-050-058-095>099-111400-
WEST-CENTRAL ILLINOIS

CITY           SKY/WX    TMP DP  RH WIND       PRES   REMARKS
QUINCY         CLOUDY    37  20  50 S12       29.89F WCI  29
GALESBURG*     MIX PCPN  31  28  87 S9G16     29.94F WCI  23
MACOMB*        CLOUDY    35  23  62 S10       29.96F WCI  27
JACKSONVILLE*  CLOUDY    36  20  52 SE8       29.95F WCI  30
PITTSFIELD*    CLOUDY    37  21  53 SE7       29.93F WCI  31
$$

ILZ028>032-037-038-041>044-048-051>054-059>061-111400-
CENTRAL ILLINOIS

CITY           SKY/WX    TMP DP  RH WIND       PRES   REMARKS
PONTIAC        CLOUDY    31  26  80 SE15      30.01F WCI  20
BLOOMINGTON    CLOUDY    30  24  78 S14       30.01S WCI  19
DECATUR        CLOUDY    35  20  54 S10       30.03F WCI  27
PEORIA         CLOUDY    33  23  66 S13       29.98F WCI  24
LACON*         CLOUDY    31  24  74 S8        29.97F WCI  23
LINCOLN*       CLOUDY    35  23  60 S9        30.00F WCI  28
SPRINGFIELD    CLOUDY    37  21  52 S14       29.99F WCI  28
TAYLORVILLE    CLOUDY    35  20  55 S14       30.01F WCI  26
$$

ILZ033-039-045-046-055>057-062-063-111400-
EAST-CENTRAL ILLINOIS

CITY           SKY/WX    TMP DP  RH WIND       PRES   REMARKS
CHAMPAIGN      CLOUDY    33  21  61 S14       30.05F WCI  23
RANTOUL*       CLOUDY    32  25  73 S8        30.06S WCI  25
MATTOON        CLOUDY    33  19  56 S15       30.05F WCI  23
PARIS*         CLOUDY    32  22  65 S15       30.10F WCI  22
$$

ILZ079-100>102-111400-
SOUTHWEST ILLINOIS

CITY           SKY/WX    TMP DP  RH WIND       PRES   REMARKS
ALTON          CLOUDY    39  19  45 S12       30.01S WCI  32
BELLEVILLE     CLOUDY    40  21  47 S9        30.02S
CAHOKIA*       CLOUDY    41  19  41 S7        30.01S
SPARTA*        CLOUDY    40  21  47 S15G26    30.04S
$$

ILZ064>066-069>071-074>076-080>082-084>086-088>090-092>094-111400-
SOUTH-CENTRAL ILLINOIS

CITY           SKY/WX    TMP DP  RH WIND       PRES   REMARKS
CARBONDALE     CLOUDY    41  20  43 S20G25    30.08F
CAIRO*         CLOUDY    40  21  48 S12G18    30.12F
EFFINGHAM*     CLOUDY    36  23  58 SE9G18    30.09S WCI  29
MARION         CLOUDY    43  19  39 S12       30.09F
CENTRALIA*     CLOUDY    40  22  49 S14       30.04F
SALEM*         CLOUDY    40  19  42 S8        30.06F
METROPOLIS*    CLOUDY    41  19  41 S8        30.15F
$$

ILZ067-068-072-073-078-083-087-091-111400-
SOUTHEAST ILLINOIS

CITY           SKY/WX    TMP DP  RH WIND       PRES   REMARKS
LAWRENCEVILLE  CLOUDY    36  21  54 S13       30.13F WCI  27
FLORA*         CLOUDY    37  24  58 S12       30.08F WCI  30
FAIRFIELD*     CLOUDY    38  22  52 SE6       30.09F WCI  33
HARRISBURG*    CLOUDY    41  20  44 S10G18    30.11F
ROBINSON*      CLOUDY    34  20  57 S12       30.13F WCI  25
CARMI*         CLOUDY    37  24  60 S13       30.11F WCI  29
$$

ABBREVIATIONS USED IN REMARKS
   TC - TEMPERATURE IN CELSIUS
  WCI - WIND CHILL INDEX
   HX - HEAT INDEX
  VSB - VISIBILITY
$$




USA.gov is the U.S. government's official web portal to all federal, state and local government web resources and services.